Time_in_sec,Mx,My,Mz
1314364440.71348619,-0.12090888,0.72006410,-0.54576558
1314364440.76146841,-0.11493494,0.71986127,-0.54501182
1314364440.81350350,-0.12005214,0.71876734,-0.54543579
1314364440.86149502,-0.11632023,0.71990269,-0.54738969
1314364440.91346669,-0.11727202,0.71991092,-0.54717475
1314364440.96079850,-0.11533418,0.72134781,-0.55139703
1314364441.01279306,-0.11758990,0.72094756,-0.54774153
1314364441.06409431,-0.11491515,0.72106093,-0.54907340
1314364441.11259365,-0.11946446,0.72100812,-0.55136406
1314364441.16150045,-0.11639338,0.72058254,-0.55077714
1314364441.21325016,-0.11770643,0.72086656,-0.55193651
1314364441.26113868,-0.11452292,0.71977854,-0.54958147
1314364441.31716442,-0.11853430,0.72164500,-0.55185533
1314364441.36074305,-0.11582561,0.72082967,-0.55047578
1314364441.41273832,-0.11717162,0.72214550,-0.55205023
1314364441.46146631,-0.11377409,0.72432071,-0.55484205
1314364441.51263595,-0.11617445,0.72161585,-0.55158293
1314364441.56149745,-0.11514330,0.71992606,-0.55069959
1314364441.62082720,-0.11762173,0.72264498,-0.55032355
1314364441.66131353,-0.11789428,0.72087765,-0.55275822
1314364441.71440339,-0.11543943,0.72111160,-0.55315793
1314364441.76068711,-0.11304554,0.72094774,-0.55234206
1314364441.82083511,-0.11874368,0.72309518,-0.55512142
1314364441.86822724,-0.11578213,0.72238451,-0.55183619
1314364441.91350913,-0.11716039,0.71970779,-0.55216628
1314364441.96288538,-0.11372154,0.72290057,-0.55415267
1314364442.01264358,-0.11690731,0.72140038,-0.55459660
1314364442.06311393,-0.11296596,0.72211105,-0.55315697
1314364442.11344528,-0.11759367,0.72258604,-0.55667228
1314364442.16084528,-0.11276252,0.72176218,-0.55665576
1314364442.21266580,-0.11587788,0.72360629,-0.55779642
1314364442.26149273,-0.11330628,0.72425216,-0.56075984
1314364442.31254482,-0.11764735,0.72208357,-0.55761743
1314364442.36147618,-0.11229385,0.72100276,-0.55810916
1314364442.41356802,-0.11673359,0.72351766,-0.56054795
1314364442.46065784,-0.11326712,0.72473252,-0.55778843
1314364442.51345468,-0.11515517,0.72464263,-0.55938375
1314364442.56070256,-0.11322071,0.72282571,-0.55952799
1314364442.61363220,-0.11501370,0.72402430,-0.56166798
1314364442.66153812,-0.11195093,0.72257483,-0.56134409
1314364442.71362114,-0.11392666,0.72439969,-0.56187797
1314364442.76146626,-0.11343107,0.72542977,-0.56266767
1314364442.81257343,-0.11531717,0.72428906,-0.56209296
1314364442.86462212,-0.11326511,0.72219324,-0.56033653
1314364442.91367555,-0.11673564,0.72377437,-0.56054997
1314364442.96062517,-0.11302029,0.72514445,-0.56047970
1314364443.01253247,-0.11609239,0.72569841,-0.56106764
1314364443.06150460,-0.11266001,0.72476548,-0.56140178
1314364443.11365724,-0.11665315,0.72273308,-0.55932122
1314364443.16146421,-0.11432529,0.72258186,-0.55959028
1314364443.21259785,-0.11584163,0.72377729,-0.56171417
1314364443.26061988,-0.11287878,0.72555166,-0.56263655
1314364443.31344056,-0.11459473,0.72271192,-0.55947179
1314364443.36114621,-0.11318354,0.72333133,-0.55885398
1314364443.41260052,-0.11423741,0.72476912,-0.56014216
1314364443.46180701,-0.11308843,0.72438836,-0.56169409
1314364443.51261950,-0.11558045,0.72364885,-0.56196833
1314364443.56149530,-0.11291088,0.72463560,-0.56101000
1314364443.61262369,-0.11686253,0.72418326,-0.56258726
1314364443.66065192,-0.11088752,0.72362053,-0.56412780
1314364443.71458983,-0.11472976,0.72391635,-0.56381267
1314364443.76145887,-0.11268159,0.72517908,-0.56397349
1314364443.81261396,-0.11413627,0.72803289,-0.55353993
1314364443.86133742,-0.10990494,0.72707134,-0.55207086
1314364443.91261840,-0.11422129,0.72261554,-0.55107170
1314364443.96108770,-0.11139575,0.72426313,-0.55200106
1314364444.02070713,-0.11409429,0.72300065,-0.55120236
1314364444.06102109,-0.11498943,0.72107512,-0.55029392
1314364444.11347818,-0.11464361,0.72169960,-0.54906249
1314364444.16088390,-0.11069918,0.72076809,-0.55004251
1314364444.21361470,-0.11538161,0.72338301,-0.54965854
1314364444.26149201,-0.11134012,0.72245783,-0.55130857
1314364444.31367660,-0.11424001,0.72105598,-0.54930443
1314364444.36109567,-0.11108121,0.72099817,-0.54722881
1314364444.42177939,-0.11570999,0.72057605,-0.55087250
1314364444.46160603,-0.11436690,0.72146481,-0.55134171
1314364444.51344967,-0.11370007,0.72169298,-0.54941303
1314364444.56475496,-0.11225910,0.71961468,-0.54863805
1314364444.61258864,-0.11558300,0.72096115,-0.55100316
1314364444.66145277,-0.11210196,0.72322363,-0.55014253
1314364444.71659470,-0.11509167,0.72068530,-0.54975647
1314364444.76149273,-0.11202987,0.72038966,-0.54930615
1314364444.81354856,-0.11645030,0.71990275,-0.54726207
1314364444.86255121,-0.11389537,0.71998930,-0.54603338
1314364444.91601276,-0.11594247,0.71962374,-0.54574412
1314364444.96153951,-0.11316030,0.72051054,-0.54748100
1314364445.02174234,-0.11677654,0.72014701,-0.54579651
1314364445.06147528,-0.11861625,0.71835649,-0.54453862
1314364445.11466217,-0.11745399,0.71653825,-0.54378176
1314364445.16149235,-0.11416604,0.71865976,-0.54158002
1314364445.22146177,-0.11702127,0.72050381,-0.54297584
1314364445.26461554,-0.11629552,0.72138649,-0.54226476
1314364445.31349969,-0.11683346,0.71821016,-0.54470420
1314364445.36153007,-0.11350116,0.71868163,-0.54424405
1314364445.41251636,-0.11650193,0.72040051,-0.54578251
1314364445.46153331,-0.11227244,0.72254074,-0.54622865
1314364445.51264620,-0.11452708,0.72052354,-0.54729021
1314364445.56150126,-0.11397791,0.71874809,-0.54981226
1314364445.61259627,-0.11406559,0.72066283,-0.54875082
1314364445.66449285,-0.11149917,0.72218215,-0.54942399
1314364445.71346664,-0.11374534,0.72300839,-0.55226314
1314364445.76151752,-0.11043062,0.72258592,-0.55220258
1314364445.81411314,-0.11562518,0.72189140,-0.55385023
1314364445.86148858,-0.11167239,0.72300935,-0.55443990
1314364445.91251397,-0.11263137,0.72265923,-0.55665487
1314364445.96153617,-0.11094768,0.72276342,-0.55615252
1314364446.01376343,-0.11469071,0.72360277,-0.55867332
1314364446.06458831,-0.10832568,0.72145194,-0.55626065
1314364446.11714363,-0.11370999,0.72410178,-0.55834991
1314364446.16082644,-0.11033431,0.72407705,-0.55950493
1314364446.21404934,-0.11242160,0.72335953,-0.56218809
1314364446.26456594,-0.10836253,0.72458524,-0.56101578
1314364446.31423974,-0.11268181,0.72359109,-0.55963761
1314364446.36150551,-0.11000603,0.72483307,-0.55854571
1314364446.42050862,-0.11306167,0.72310138,-0.56141251
1314364446.46103954,-0.11292113,0.72466242,-0.56344301
1314364446.52148056,-0.11292949,0.72261304,-0.56383342
1314364446.56157494,-0.11301624,0.72360539,-0.56060296
1314364446.61656713,-0.11408252,0.72453284,-0.56215823
1314364446.67250133,-0.10822216,0.72432685,-0.56100565
1314364446.71263480,-0.10995850,0.72484887,-0.56002945
1314364446.76149368,-0.11219765,0.72295690,-0.56082076
1314364446.81248474,-0.11384729,0.72271800,-0.56077963
1314364446.86050653,-0.11061107,0.72202933,-0.55977577
1314364446.91352105,-0.11255891,0.72448975,-0.55977237
1314364446.96095777,-0.11004719,0.72563499,-0.56139177
1314364447.01259589,-0.11289539,0.72476083,-0.56073982
1314364447.06451488,-0.10953525,0.72484237,-0.55986971
1314364447.11254692,-0.11421173,0.72384202,-0.55756634
1314364447.16148615,-0.11087641,0.72415984,-0.55480772
1314364447.21351266,-0.11406197,0.72550464,-0.55716485
1314364447.26045322,-0.11257251,0.72354525,-0.55557716
1314364447.31347442,-0.11310834,0.72239470,-0.55546451
1314364447.36048722,-0.11035207,0.72262067,-0.55544126
1314364447.41147184,-0.11394020,0.72448069,-0.55755538
1314364447.46146202,-0.11068219,0.72496641,-0.55831575
1314364447.51259637,-0.11188469,0.72666419,-0.55974960
1314364447.56149912,-0.10918851,0.72328746,-0.55889195
1314364447.61362791,-0.11175051,0.72489357,-0.56229579
1314364447.67252994,-0.11025053,0.72552085,-0.56248367
1314364447.71565151,-0.10846557,0.72591180,-0.56481522
1314364447.76051807,-0.10867533,0.72269750,-0.56412750
1314364447.81360078,-0.11075211,0.72582358,-0.56616342
1314364447.86148596,-0.10780150,0.72890705,-0.56939346
1314364447.91250324,-0.10987465,0.72606111,-0.56530350
1314364447.96447897,-0.10768917,0.72619355,-0.56788009
1314364448.02150965,-0.11067657,0.72726893,-0.56927776
1314364448.06452847,-0.10945022,0.72648877,-0.56960607
1314364448.11645269,-0.11000764,0.72700876,-0.56964236
1314364448.16049957,-0.10767040,0.72752160,-0.57194275
1314364448.21255159,-0.10879553,0.72882003,-0.57215297
1314364448.27350974,-0.10422242,0.72876489,-0.57175189
1314364448.31253052,-0.10725331,0.72702843,-0.57421190
1314364448.36048126,-0.10739989,0.72703165,-0.57435554
1314364448.41401124,-0.10825969,0.72871357,-0.57468843
1314364448.46054888,-0.10632099,0.72945958,-0.57444632
1314364448.51458287,-0.11007643,0.73104554,-0.57481152
1314364448.56053209,-0.10609493,0.72856873,-0.57537234
1314364448.61253929,-0.10970390,0.72935748,-0.57342589
1314364448.66188455,-0.10557140,0.73125988,-0.57549739
1314364448.71255374,-0.10877374,0.72999442,-0.57391721
1314364448.77339029,-0.10579449,0.72971463,-0.57482308
1314364448.82052994,-0.10742956,0.73052329,-0.57668072
1314364448.86051416,-0.10870878,0.72782761,-0.57538342
1314364448.91062069,-0.10905568,0.72756308,-0.57432055
1314364448.96151614,-0.10725228,0.72815710,-0.57178813
1314364449.01384497,-0.10962443,0.72972685,-0.57207286
1314364449.06154919,-0.10806677,0.72703505,-0.57398891
1314364449.11753678,-0.10897622,0.72918946,-0.57054478
1314364449.16149902,-0.10874201,0.72750300,-0.56916720
1314364449.21255589,-0.11067565,0.72508955,-0.56953150
1314364449.27254939,-0.10919542,0.72554260,-0.56553042
1314364449.31349802,-0.10878156,0.72487217,-0.56333935
1314364449.36150718,-0.10963527,0.72350121,-0.56621617
1314364449.42139649,-0.11229547,0.72694951,-0.56193763
1314364449.46147585,-0.11323075,0.72569752,-0.56387419
1314364449.51394629,-0.11351793,0.72437114,-0.55969203
1314364449.56153655,-0.11111061,0.72458929,-0.55860800
1314364449.61401916,-0.11191269,0.72523457,-0.55811900
1314364449.67254138,-0.11081442,0.72317219,-0.55844498
1314364449.71595812,-0.11060688,0.72482377,-0.55709416
1314364449.76056647,-0.11092502,0.72198993,-0.55587512
1314364449.82383943,-0.11478890,0.72293085,-0.55583638
1314364449.86148834,-0.11450922,0.72151697,-0.55594456
1314364449.91281581,-0.11512668,0.72071683,-0.55259633
1314364449.96150374,-0.11194921,0.72119313,-0.55241537
1314364450.02137589,-0.11457115,0.72227311,-0.55460262
1314364450.06150770,-0.11477153,0.72223687,-0.55110079
1314364450.12145495,-0.11645337,0.71903092,-0.54968792
1314364450.16178322,-0.11551906,0.72017974,-0.55004770
1314364450.22151518,-0.11617979,0.71941280,-0.54967487
1314364450.26148391,-0.11464782,0.72016215,-0.54932135
1314364450.32153153,-0.11651116,0.71904194,-0.55063719
1314364450.36153650,-0.11624982,0.72198999,-0.55050915
1314364450.42140865,-0.11343997,0.71941036,-0.55221826
1314364450.46172523,-0.11323539,0.72098410,-0.55546123
1314364450.51352310,-0.11357598,0.72176874,-0.55643278
1314364450.56053162,-0.11028813,0.72058225,-0.55690855
1314364450.61256552,-0.11335780,0.72428691,-0.56387091
1314364450.66146111,-0.10987476,0.72526711,-0.56313556
1314364450.71254683,-0.11035470,0.72492474,-0.56653893
1314364450.76148963,-0.10744257,0.72501749,-0.56623542
1314364450.82448196,-0.11198460,0.72611701,-0.56826407
1314364450.86052465,-0.11010070,0.72443795,-0.56922299
1314364450.92147326,-0.11170691,0.72472835,-0.57066965
1314364450.96132159,-0.11251833,0.72573519,-0.56802195
1314364451.02548862,-0.11102460,0.72508174,-0.56847072
1314364451.06148314,-0.11295624,0.72264302,-0.56653762
1314364451.11353946,-0.11259909,0.72288072,-0.56516749
1314364451.16152859,-0.11067694,0.72260445,-0.56532401
1314364451.21355796,-0.11200543,0.72504574,-0.56420350
1314364451.26052904,-0.11014219,0.72411489,-0.56314242
1314364451.32147455,-0.11346311,0.72428221,-0.56333649
1314364451.36295033,-0.11274260,0.72375578,-0.56288528
1314364451.41393304,-0.11404739,0.72403824,-0.56390905
1314364451.46289372,-0.11058707,0.72350943,-0.56600124
1314364451.52132058,-0.11172677,0.72376025,-0.56431270
1314364451.56549191,-0.11335062,0.72338820,-0.56386369
1314364451.61254954,-0.11259392,0.72452134,-0.56261224
1314364451.66450429,-0.10894784,0.72446966,-0.56158936
1314364451.71346164,-0.11247928,0.72542155,-0.56288260
1314364451.76749516,-0.11038486,0.72295791,-0.56274235
1314364451.81259084,-0.11322147,0.72431052,-0.56616026
1314364451.86147594,-0.10844076,0.72693253,-0.56428099
1314364451.92145872,-0.11300275,0.72375590,-0.56263018
1314364451.96150112,-0.11356535,0.72389233,-0.56279898
1314364452.02459526,-0.11157511,0.72208959,-0.56429130
1314364452.06147575,-0.11385754,0.72274488,-0.56321269
1314364452.12195635,-0.11258572,0.72349423,-0.56260401
1314364452.16446996,-0.11346521,0.72351348,-0.56346595
1314364452.21247172,-0.11383586,0.72312528,-0.56280893
1314364452.26148152,-0.10884043,0.72524315,-0.56199431
1314364452.32528806,-0.11378412,0.72467852,-0.56403375
1314364452.36148858,-0.11314416,0.72539967,-0.56021857
1314364452.42458773,-0.11514172,0.72251058,-0.56396109
1314364452.46460152,-0.11252777,0.72530270,-0.56369525
1314364452.51569772,-0.11301505,0.72403949,-0.56506526
1314364452.56063104,-0.10941532,0.72566319,-0.56459826
1314364452.61249089,-0.11272178,0.72482705,-0.56694591
1314364452.66147685,-0.10710797,0.72682267,-0.56731057
1314364452.71369863,-0.11303345,0.72611892,-0.56737912
1314364452.76148772,-0.10983538,0.72607845,-0.56692284
1314364452.82528353,-0.11109588,0.72619933,-0.56497014
1314364452.86129737,-0.11205301,0.72400445,-0.56284714
1314364452.92146635,-0.11261442,0.72583205,-0.56505555
1314364452.96447492,-0.11219425,0.72621071,-0.56489885
1314364453.01267624,-0.11311422,0.72452152,-0.56210196
1314364453.06173253,-0.11028780,0.72296423,-0.56341243
1314364453.11414409,-0.11127370,0.72333860,-0.56144565
1314364453.16149259,-0.11082656,0.72527534,-0.56292063
1314364453.21412182,-0.11308433,0.72387481,-0.56168997
1314364453.26152754,-0.11098970,0.72551316,-0.56104022
1314364453.31481934,-0.11516666,0.72320986,-0.55748188
1314364453.36458778,-0.11071423,0.72381884,-0.55898458
1314364453.42449427,-0.11304624,0.72345805,-0.55884701
1314364453.46153283,-0.11312982,0.72485930,-0.55778146
1314364453.51268697,-0.11321139,0.72372121,-0.55926394
1314364453.56149364,-0.11217812,0.72280008,-0.55825114
1314364453.61253619,-0.11381438,0.72191769,-0.55806923
1314364453.66133523,-0.11087954,0.72226250,-0.55736095
1314364453.71359968,-0.11222658,0.72370672,-0.55893642
1314364453.76524329,-0.11082371,0.72455919,-0.55615890
1314364453.81649637,-0.11461955,0.72294819,-0.55758327
1314364453.86176968,-0.11245997,0.72367680,-0.55597699
1314364453.91326690,-0.11392073,0.72329837,-0.55511314
1314364453.96521091,-0.11273468,0.72262925,-0.55382311
1314364454.02163458,-0.11629007,0.72186953,-0.55118620
1314364454.06151628,-0.11626439,0.72094238,-0.54861039
1314364454.12147570,-0.11602593,0.72181892,-0.54684657
1314364454.16459537,-0.11641626,0.71976805,-0.54671860
1314364454.21326375,-0.11717086,0.71940362,-0.54784065
1314364454.26153445,-0.11232822,0.72126949,-0.54730332
1314364454.31260777,-0.11706264,0.71846074,-0.54390866
1314364454.36149406,-0.11371804,0.71864855,-0.54101342
1314364454.41266036,-0.11790616,0.71855146,-0.53963441
1314364454.46459270,-0.11517260,0.71852535,-0.54001594
1314364454.51583672,-0.11806937,0.71776384,-0.53788131
1314364454.56452966,-0.11651268,0.71748292,-0.53724831
1314364454.61356497,-0.12114038,0.71921492,-0.53834087
1314364454.66148901,-0.11825430,0.71682733,-0.53423667
1314364454.71260405,-0.11846487,0.71658641,-0.53546315
1314364454.76150441,-0.11679155,0.71718043,-0.53280318
1314364454.82121158,-0.12050696,0.71604192,-0.53057808
1314364454.86162567,-0.11737173,0.71642298,-0.53337163
1314364454.92144084,-0.11858696,0.71397138,-0.53099144
1314364454.96457314,-0.12047178,0.71657282,-0.53220153
1314364455.01283669,-0.11947979,0.71565962,-0.53186679
1314364455.07348204,-0.11826164,0.71590650,-0.53220326
1314364455.12552667,-0.11724182,0.71586043,-0.52903587
1314364455.16147327,-0.12090343,0.71350431,-0.53287905
1314364455.22459674,-0.11983921,0.71409070,-0.52890307
1314364455.26123142,-0.12077132,0.71576154,-0.52815908
1314364455.32148409,-0.12028614,0.71499896,-0.52934128
1314364455.36453104,-0.11952748,0.71382433,-0.52834249
1314364455.41328382,-0.12210092,0.71502322,-0.52971709
1314364455.46144962,-0.11600404,0.71674454,-0.52897066
1314364455.51269913,-0.11935813,0.71384168,-0.53008938
1314364455.56518388,-0.11876252,0.71495587,-0.52695537
1314364455.61315084,-0.12252314,0.71615827,-0.52745306
1314364455.67259526,-0.11717584,0.71482229,-0.52807832
1314364455.71698213,-0.11611874,0.71607584,-0.52640492
1314364455.76517200,-0.11820926,0.71392393,-0.52705055
1314364455.81648135,-0.12090360,0.71419889,-0.52599299
1314364455.86146307,-0.11879344,0.71573097,-0.52736837
1314364455.91335011,-0.11993109,0.71446800,-0.52810055
1314364455.96546030,-0.11931697,0.71429676,-0.52482063
1314364456.01346326,-0.11976805,0.71469313,-0.52539033
1314364456.06460071,-0.11971038,0.71263105,-0.52469575
1314364456.11371756,-0.12240974,0.71559894,-0.52338856
1314364456.16452765,-0.11762827,0.71296507,-0.52214515
1314364456.21254253,-0.12044616,0.71587723,-0.52733034
1314364456.26761365,-0.11828566,0.71568346,-0.52355510
1314364456.31390667,-0.12120944,0.71108145,-0.52233887
1314364456.36148357,-0.11799363,0.71501142,-0.52110082
1314364456.41256595,-0.12133003,0.71379650,-0.52398789
1314364456.46551204,-0.11940379,0.71426368,-0.52171755
1314364456.51344728,-0.12119893,0.71492505,-0.52169168
1314364456.56552172,-0.11897337,0.71335852,-0.52155060
1314364456.62569690,-0.11952139,0.71454257,-0.52361822
1314364456.66147161,-0.12148497,0.71300727,-0.52209920
1314364456.71257687,-0.12024519,0.71260911,-0.52215934
1314364456.76476502,-0.11769533,0.71310610,-0.52323109
1314364456.82148123,-0.12181321,0.71327680,-0.52293104
1314364456.87349916,-0.12173466,0.71456850,-0.52374697
1314364456.91351581,-0.11964639,0.71161819,-0.52603561
1314364456.96551681,-0.11830750,0.71096951,-0.52676374
1314364457.01299644,-0.12013346,0.71445698,-0.52689612
1314364457.06145406,-0.11612289,0.71430683,-0.52895916
1314364457.11413431,-0.11924344,0.71576738,-0.53023237
1314364457.16149640,-0.11816168,0.71496516,-0.52840692
1314364457.21746421,-0.11923815,0.71694493,-0.53226781
1314364457.26451612,-0.11621352,0.71614373,-0.53249151
1314364457.31349397,-0.11809532,0.71733451,-0.53382587
1314364457.36149073,-0.11581185,0.71529382,-0.53732622
1314364457.42564321,-0.11654159,0.71697569,-0.53778666
1314364457.46158361,-0.11652590,0.71994591,-0.53942966
1314364457.52550030,-0.11669001,0.71882367,-0.54226828
1314364457.57345486,-0.11583829,0.71896285,-0.54411161
1314364457.61362195,-0.11303659,0.71843582,-0.54570156
1314364457.66112947,-0.11360134,0.71677804,-0.54612720
1314364457.71647859,-0.11459106,0.72027946,-0.54837310
1314364457.76452160,-0.11089530,0.72078079,-0.55099982
1314364457.82160878,-0.11452378,0.72172636,-0.55162305
1314364457.86147499,-0.11421394,0.72227931,-0.55552781
1314364457.92161560,-0.11420887,0.72061187,-0.55565006
1314364457.96149945,-0.11471757,0.72283876,-0.55920964
1314364458.01381898,-0.11302654,0.72386378,-0.56074065
1314364458.06465435,-0.10915657,0.72238404,-0.55847788
1314364458.11468744,-0.11382852,0.72530305,-0.56241953
1314364458.16460800,-0.10950525,0.72373271,-0.56404841
1314364458.21415281,-0.11266621,0.72325331,-0.56395805
1314364458.26147008,-0.10814344,0.72618109,-0.56628489
1314364458.31248164,-0.11378309,0.72329313,-0.56645542
1314364458.36486864,-0.10904171,0.72361523,-0.56550694
1314364458.42613077,-0.11283643,0.72518384,-0.56425279
1314364458.46852374,-0.11234483,0.72752148,-0.56721461
1314364458.51365328,-0.11242143,0.72266495,-0.56907409
1314364458.56145406,-0.11021945,0.72530830,-0.56653398
1314364458.61344218,-0.11200327,0.72558296,-0.56636941
1314364458.66148710,-0.10935225,0.72557265,-0.56810707
1314364458.71250820,-0.11172537,0.72703934,-0.57068819
